Wind_Speed
54 55 57 58 59 60 61 62 63 64 65 66 67 68 69 69 69 70 70 71 72 72 72 73 72 70 71 69 67 65 63 60 59 58 57 53 51 51 51 46 44 43 42
55 56 55 55 55 56 60 63 66 69 69 71 72 72 72 72 73 73 73 73 74 74 74 75 76 76 75 75 74 72 70 67 65 66 62 57 56 57 55 50 48 46 47
53 54 54 56 57 56 55 56 57 59 62 65 67 69 71 73 74 76 78 80 81 81 83 84 83 83 81 80 79 78 77 74 71 70 72 71 60 57 57 52 51 51 51
52 51 51 50 51 53 55 57 59 62 65 68 69 71 73 75 78 80 81 76 76 75 75 78 78 85 91 89 86 83 81 80 78 75 74 76 76 71 64 59 58 52 53
43 43 45 47 51 54 53 50 47 47 48 47 51 53 56 60 61 61 63 68 69 64 60 62 64 72 76 81 92 91 86 86 84 81 78 78 78 78 78 73 60 56 51
40 43 38 33 33 34 34 35 37 42 44 46 51 54 57 60 63 68 68 68 69 70 72 70 66 70 76 77 78 84 90 89 88 88 85 82 79 79 79 78 75 67 62
23 22 23 23 26 27 28 32 36 40 41 43 43 43 47 51 54 60 67 76 80 80 78 77 74 71 72 75 81 81 79 85 86 90 89 86 82 81 80 80 78 72 67
17 19 20 23 22 24 28 31 36 35 35 39 45 43 46 45 42 48 60 65 69 72 72 72 75 75 72 75 75 74 74 76 82 84 88 89 85 80 80 79 80 76 71
11 15 15 17 18 22 27 33 34 37 42 41 38 41 45 46 52 61 62 55 58 64 69 71 70 70 72 75 77 74 70 69 72 76 80 86 86 82 79 78 78 78 75
11 12 16 18 18 22 27 29 29 31 27 35 32 28 34 45 52 48 40 45 51 56 62 66 66 68 72 77 71 73 69 66 69 73 74 78 84 83 80 78 74 70 72
11 13 13 16 16 18 21 20 21 27 32 31 25 29 43 21 20 21 21 26 33 43 58 72 79 77 78 74 70 67 66 63 64 63 70 71 75 81 78 77 76 73 70
12 14 14 14 12 12 15 25 28 34 39 26 25 32 39 21 19 19 21 25 31 38 39 41 43 46 54 64 65 61 64 61 58 54 57 64 66 74 76 75 73 71 69
17 17 17 10 6 13 18 21 26 32 39 36 27 27 29 24 22 23 24 25 30 34 27 8 12 6 12 26 50 56 56 57 54 54 50 54 59 63 71 73 70 70 69
18 19 19 12 9 9 14 20 27 28 31 37 32 23 24 28 27 28 31 35 31 29 19 12 13 3 2 10 18 41 50 50 53 53 50 50 56 55 61 66 66 67 67
21 20 18 16 16 12 13 19 24 26 28 32 35 26 31 39 32 31 36 35 37 33 24 16 12 12 8 10 14 21 40 49 46 47 47 50 52 53 55 60 62 62 60
24 23 19 17 16 15 14 21 20 23 26 27 31 33 36 27 30 30 33 40 35 30 31 22 14 5 9 9 10 16 19 28 37 39 43 43 42 41 45 51 53 52 50
19 20 20 16 16 18 16 20 19 22 24 27 28 31 33 28 32 35 34 39 38 41 29 23 22 13 6 7 9 15 19 20 22 25 29 30 31 32 35 38 39 40 42
17 17 19 15 16 17 17 18 16 19 22 24 26 26 28 27 32 30 33 44 41 33 32 24 19 17 11 7 5 6 10 14 18 21 23 26 29 30 31 34 36 39 43
17 17 19 18 15 16 16 16 16 19 21 24 26 24 23 25 25 24 34 33 37 42 33 32 27 22 20 17 17 6 3 7 11 14 17 19 21 22 27 32 34 36 38
21 19 17 16 15 15 16 19 20 21 23 25 28 29 28 23 23 21 20 22 27 33 38 33 34 27 22 20 14 10 5 7 10 11 13 17 20 24 24 25 26 28 28
23 22 21 19 17 15 16 19 22 24 24 26 28 29 29 29 26 23 21 19 16 20 24 22 28 29 30 14 22 17 9 13 12 11 8 9 16 23 15 13 15 17 19
22 23 23 24 21 18 18 20 24 25 26 27 27 28 29 28 29 27 24 22 18 17 14 13 13 13 16 20 21 14 12 9 6 3 3 7 5 7 13 15 15 16 15
21 22 21 22 22 24 25 25 24 25 27 28 29 29 28 27 26 26 26 24 23 20 18 16 11 9 8 7 7 6 5 6 9 10 7 2 8 11 14 16 19 20 19
23 22 25 23 21 22 22 23 26 28 29 30 31 31 31 30 29 26 24 23 23 22 23 20 17 15 12 12 10 7 5 6 10 11 10 10 12 14 15 19 18 20 22
23 27 27 27 27 26 28 25 24 24 25 25 23 22 21 22 25 26 27 27 26 25 22 21 23 20 18 18 17 17 15 14 13 15 17 18 19 21 21 23 24 25 27
30 28 29 31 30 30 32 33 32 30 29 28 27 28 30 30 29 28 26 27 27 29 29 29 26 24 25 25 24 23 23 23 23 22 22 23 24 25 26 27 28 29 30
Wind_Direction
267 268 269 270 270 270 270 271 271 271 271 272 273 274 273 274 273 272 271 270 270 269 268 268 265 262 262 261 260 258 256 254 252 253 251 251 251 251 251 249 248 251 255
272 272 273 274 274 274 274 273 272 272 272 272 272 272 272 272 272 271 269 267 266 265 264 263 263 262 260 258 258 256 255 253 249 249 251 249 248 251 251 248 248 247 251
271 273 275 276 277 277 276 276 276 276 275 274 273 272 270 269 269 268 268 267 266 264 263 261 260 260 258 256 255 255 252 252 249 246 246 245 242 244 246 247 245 247 248
272 273 273 274 275 276 278 278 277 276 275 275 275 273 271 269 268 267 267 267 266 264 262 261 262 260 257 256 254 250 250 249 248 245 244 246 244 245 244 245 246 242 245
274 277 278 277 276 276 278 279 279 279 277 275 275 274 272 271 268 265 265 263 263 261 261 267 267 266 263 259 254 251 249 248 247 245 243 242 244 244 244 243 241 240 242
276 279 281 278 275 274 274 276 279 280 283 285 285 283 279 277 273 269 265 264 259 258 259 260 263 266 262 260 257 255 249 246 245 245 242 240 241 244 245 246 243 243 243
271 272 274 278 282 279 277 276 282 284 284 285 289 294 291 284 278 275 272 266 265 264 265 264 266 264 261 258 255 251 252 248 244 243 243 242 240 240 242 245 247 245 243
264 284 305 304 296 294 291 291 292 289 290 293 294 289 294 288 284 292 285 274 267 263 262 260 264 263 260 256 254 251 248 248 248 242 242 241 239 239 240 241 244 246 244
307 338 341 335 322 297 285 288 291 295 295 296 297 290 292 281 287 290 288 277 269 265 266 268 267 262 257 253 251 252 250 250 247 246 242 241 241 239 239 241 242 244 245
313 315 327 322 302 293 295 306 313 306 309 319 314 315 303 295 296 298 293 284 278 276 275 273 269 260 255 250 247 248 247 246 246 242 242 240 238 238 238 240 242 244 246
300 298 318 321 333 339 344 341 353 339 323 325 330 325 332 323 328 324 311 300 295 288 279 272 269 261 254 248 240 240 240 241 242 242 241 238 237 235 235 237 241 244 246
305 304 316 338 5 20 33 30 15 14 12 347 340 336 332 327 339 341 337 330 322 321 313 294 278 262 249 239 237 236 237 238 240 240 240 238 234 235 233 234 237 241 244
294 308 319 320 343 350 21 17 4 8 17 11 355 346 358 9 6 4 358 346 339 341 332 20 19 299 226 229 234 230 233 234 236 240 239 240 233 234 234 233 234 238 242
297 303 309 299 307 4 9 1 343 352 8 17 8 1 357 6 3 8 10 8 358 349 345 325 339 334 180 220 231 233 229 231 235 237 239 237 235 232 233 234 233 235 239
319 311 293 288 286 300 354 343 340 352 357 9 19 14 7 3 2 15 16 12 5 3 355 356 314 280 278 257 237 226 226 231 241 238 230 232 233 231 230 231 233 236 239
309 304 299 278 269 288 312 320 333 340 352 3 12 22 20 14 14 26 24 22 16 6 6 3 6 246 240 232 232 229 231 234 234 239 236 233 234 234 232 233 235 239 242
320 316 313 283 268 273 293 311 326 335 346 353 1 2 22 28 16 20 28 21 14 9 10 9 17 5 339 270 244 226 223 223 220 226 230 231 231 231 232 234 238 242 246
329 332 333 309 275 268 277 295 315 330 342 352 353 359 0 8 15 20 17 19 21 21 24 27 17 14 16 3 310 269 242 224 214 214 216 218 219 224 231 236 239 242 243
326 331 335 329 306 286 294 295 309 320 334 345 351 351 357 354 4 14 23 18 9 18 23 34 37 35 32 15 17 10 220 212 222 223 225 226 230 234 239 243 245 248 251
320 323 327 328 317 303 293 297 307 315 325 337 343 348 351 349 351 350 353 23 24 23 19 33 33 37 49 39 36 41 72 213 209 219 230 233 233 237 239 241 247 249 252
318 315 316 319 320 309 299 294 302 307 313 323 331 337 340 346 348 346 349 348 6 21 21 14 30 34 28 34 41 51 64 106 120 152 176 210 231 245 229 231 234 239 246
325 319 312 309 310 307 303 300 299 302 307 312 317 321 326 331 336 344 343 341 344 342 354 18 21 12 42 49 55 30 29 27 29 145 257 277 191 194 222 236 237 233 232
348 349 340 318 304 301 300 295 291 290 294 298 302 305 308 311 316 324 331 337 332 333 333 334 338 340 346 341 346 1 21 104 116 126 117 153 189 207 223 211 223 225 223
326 328 331 333 338 331 331 321 306 303 302 302 302 303 305 307 306 304 307 313 320 324 322 321 320 321 318 316 311 302 277 229 227 235 249 243 239 241 231 229 236 237 241
305 311 314 316 315 316 317 319 321 327 333 330 328 327 329 330 327 319 309 303 301 304 306 308 307 302 296 298 297 293 288 278 266 260 260 259 254 250 250 248 248 250 253
291 288 291 297 300 303 306 307 309 311 314 313 310 310 312 318 323 324 325 332 327 310 299 296 294 292 291 289 286 285 282 277 272 267 264 263 264 262 260 258 256 256 259
Height
5775 5775 5774 5774 5773 5772 5772 5771 5770 5768 5767 5766 5764 5764 5764 5763 5764 5764 5763 5762 5761 5762 5762 5763 5766 5769 5770 5773 5775 5777 5779 5784 5787 5788 5789 5791 5793 5796 5798 5802 5807 5808 5807
5763 5762 5762 5761 5760 5759 5757 5755 5754 5753 5752 5750 5749 5748 5746 5746 5744 5743 5743 5742 5742 5742 5742 5743 5744 5747 5750 5753 5756 5760 5762 5766 5770 5773 5776 5778 5781 5782 5786 5790 5794 5797 5797
5752 5751 5750 5748 5746 5744 5742 5740 5738 5736 5734 5732 5732 5730 5728 5728 5726 5722 5722 5720 5720 5722 5721 5721 5723 5724 5726 5732 5736 5739 5743 5748 5751 5755 5757 5761 5765 5767 5771 5776 5781 5785 5786
5740 5740 5738 5736 5734 5731 5729 5727 5723 5720 5717 5715 5714 5712 5711 5710 5707 5704 5702 5699 5696 5697 5699 5699 5699 5700 5703 5706 5713 5718 5722 5724 5732 5734 5739 5742 5749 5753 5756 5762 5768 5772 5773
5730 5729 5727 5725 5723 5719 5715 5712 5708 5705 5702 5700 5697 5694 5692 5690 5687 5685 5683 5680 5679 5679 5679 5678 5676 5678 5679 5683 5686 5692 5699 5703 5709 5716 5720 5724 5728 5734 5739 5745 5751 5756 5762
5721 5719 5717 5713 5710 5708 5705 5703 5699 5697 5693 5689 5685 5681 5678 5673 5670 5668 5665 5663 5661 5659 5657 5654 5654 5655 5655 5659 5664 5667 5670 5679 5686 5691 5699 5705 5710 5718 5723 5727 5735 5742 5747
5714 5712 5709 5706 5704 5700 5697 5694 5691 5687 5682 5678 5674 5669 5662 5656 5651 5647 5644 5642 5640 5638 5636 5632 5631 5632 5633 5635 5638 5643 5649 5654 5660 5668 5675 5684 5693 5700 5706 5711 5716 5725 5733
5709 5708 5704 5701 5698 5695 5691 5687 5683 5678 5673 5667 5661 5655 5647 5639 5634 5628 5622 5618 5615 5613 5610 5608 5607 5607 5608 5612 5614 5619 5626 5631 5637 5645 5654 5661 5672 5681 5688 5695 5700 5707 5715
5706 5702 5699 5696 5693 5688 5685 5680 5675 5669 5663 5657 5650 5641 5634 5627 5621 5612 5601 5595 5594 5592 5589 5585 5582 5581 5582 5588 5592 5598 5605 5610 5618 5625 5633 5641 5652 5664 5671 5677 5683 5689 5696
5700 5698 5696 5692 5688 5683 5678 5673 5666 5660 5653 5646 5637 5630 5623 5615 5605 5593 5587 5581 5578 5573 5566 5560 5556 5555 5557 5562 5567 5576 5585 5592 5599 5606 5614 5622 5632 5644 5653 5662 5667 5673 5680
5697 5696 5692 5688 5683 5677 5672 5668 5661 5653 5644 5636 5627 5620 5614 5600 5595 5587 5580 5573 5567 5556 5545 5532 5525 5524 5529 5536 5542 5553 5564 5574 5583 5589 5596 5604 5614 5622 5633 5644 5653 5660 5667
5695 5694 5690 5684 5679 5674 5668 5662 5655 5648 5637 5628 5622 5616 5606 5597 5589 5581 5573 5564 5554 5541 5523 5510 5500 5495 5498 5511 5524 5536 5549 5560 5569 5577 5583 5590 5598 5606 5617 5627 5638 5646 5654
5691 5688 5685 5680 5676 5671 5665 5658 5653 5645 5635 5626 5618 5612 5604 5594 5586 5577 5569 5558 5547 5534 5519 5508 5498 5491 5491 5501 5512 5525 5536 5548 5557 5566 5572 5580 5584 5593 5602 5612 5622 5631 5638
5687 5682 5679 5676 5673 5668 5662 5656 5651 5644 5636 5625 5616 5608 5602 5593 5584 5573 5564 5555 5543 5533 5522 5513 5505 5500 5497 5504 5510 5519 5529 5539 5548 5555 5562 5568 5574 5582 5590 5599 5608 5616 5624
5679 5676 5673 5670 5668 5664 5659 5653 5649 5642 5636 5627 5617 5607 5600 5592 5581 5572 5562 5553 5544 5534 5524 5516 5509 5507 5506 5508 5512 5516 5524 5532 5540 5544 5550 5557 5563 5570 5579 5589 5598 5605 5612
5674 5670 5666 5664 5662 5659 5656 5652 5647 5641 5635 5629 5619 5610 5600 5592 5584 5574 5564 5555 5545 5536 5528 5521 5515 5512 5513 5513 5514 5518 5523 5527 5532 5538 5545 5551 5557 5564 5572 5580 5588 5595 5601
5668 5663 5660 5657 5655 5654 5652 5649 5645 5640 5634 5628 5620 5612 5604 5595 5587 5579 5569 5558 5549 5540 5531 5525 5521 5517 5514 5513 5515 5517 5520 5523 5528 5533 5540 5545 5552 5560 5568 5576 5582 5588 5593
5663 5659 5655 5651 5648 5647 5646 5645 5642 5638 5633 5627 5620 5613 5606 5599 5590 5581 5573 5565 5555 5546 5538 5530 5524 5521 5519 5518 5518 5519 5521 5524 5528 5532 5536 5542 5548 5555 5563 5568 5573 5578 5582
5659 5656 5652 5648 5645 5643 5641 5640 5638 5635 5630 5625 5619 5612 5606 5600 5593 5586 5578 5571 5562 5554 5546 5538 5532 5528 5525 5523 5522 5523 5525 5527 5530 5534 5538 5542 5548 5554 5557 5562 5565 5570 5573
5656 5653 5649 5646 5643 5640 5638 5636 5634 5631 5628 5623 5618 5612 5606 5601 5595 5589 5583 5576 5570 5563 5555 5547 5540 5537 5533 5531 5527 5527 5525 5526 5529 5533 5537 5540 5544 5548 5550 5554 5559 5562 5565
5652 5649 5646 5643 5639 5637 5635 5633 5630 5627 5624 5620 5616 5611 5606 5600 5595 5590 5585 5580 5574 5569 5563 5557 5553 5547 5540 5537 5534 5533 5533 5531 5532 5534 5536 5538 5541 5543 5547 5550 5553 5556 5559
5648 5645 5642 5640 5637 5634 5631 5628 5625 5623 5620 5616 5613 5609 5604 5599 5594 5589 5585 5580 5576 5571 5566 5563 5559 5555 5552 5549 5544 5541 5539 5538 5537 5538 5538 5539 5541 5544 5545 5547 5549 5551 5553
5644 5641 5637 5634 5631 5628 5626 5623 5619 5615 5612 5609 5606 5603 5599 5595 5592 5588 5584 5580 5576 5572 5569 5565 5561 5558 5555 5553 5551 5549 5548 5545 5544 5542 5541 5542 5542 5544 5545 5546 5548 5551 5554
5638 5635 5633 5630 5627 5623 5620 5616 5613 5610 5607 5603 5600 5596 5593 5590 5587 5583 5580 5576 5573 5571 5567 5565 5562 5559 5556 5554 5552 5550 5549 5550 5550 5549 5548 5548 5548 5548 5548 5548 5549 5551 5552
5630 5629 5626 5623 5620 5617 5615 5611 5608 5604 5601 5598 5594 5591 5587 5584 5580 5577 5574 5571 5569 5566 5563 5562 5560 5558 5556 5555 5553 5550 5548 5547 5547 5547 5547 5547 5547 5547 5546 5546 5546 5546 5547
5622 5617 5615 5614 5611 5608 5606 5603 5601 5598 5594 5591 5588 5585 5582 5579 5576 5573 5570 5567 5563 5560 5558 5556 5554 5552 5550 5549 5548 5548 5547 5545 5544 5542 5541 5541 5542 5542 5542 5541 5540 5540 5540